Location: ???????
(55.8719°N, 38.1523°E)
Time: 09:32:15
(UTC+00:00)

ATLAS 3B R/B - Pass Details

Date: 14 April 2024
Orbit: 943 x 1251 km, 63.8° (Epoch: 19 May)

Event Time Altitude Azimuth Distance (km) Brightness Sun altitude
Rises 00:20:45 0° 300° (WNW) 4,101 5.6 -15.4°
Reaches altitude 10° 00:23:31 10° 304° (NW) 3,168 5.1 -15.2°
Maximum altitude 00:31:10 62° 25° (NNE) 1,390 3.6 -14.4°
Drops below altitude 10° 00:38:58 10° 106° (ESE) 3,227 5.7 -13.6°
Sets 00:41:48 0° 110° (ESE) 4,181 6.2 -13.3°
